Location: Poigny-la-Forêt
(48.6876°N, 1.7701°E)
Time: 02:50:07
(UTC+01:00)

Envisat - Visible Passes

Search period start: 26 March 2019 00:00
Search period end: 05 April 2019 01:00
Orbit: 764 x 766 km, 98.2° (Epoch: 25 March)

Date Brightness Start Highest point End Pass type
(mag) Time Alt. Az. Time Alt. Az. Time Alt. Az.
26 Mar 5.5 20:32:58 10° SW 20:36:55 23° W 20:40:55 10° NW visible
27 Mar 4.3 19:55:01 10° S 19:59:53 45° W 20:04:47 10° NNW visible
28 Mar 6.0 21:00:17 10° WSW 21:02:47 14° W 21:05:18 10° WNW visible
29 Mar 5.2 20:21:17 10° SSW 20:25:36 28° W 20:29:57 10° NW visible
30 Mar 3.9 19:43:38 10° S 19:48:37 56° W 19:53:38 10° NNW visible
31 Mar 5.8 21:48:10 10° SW 21:51:25 17° W 21:54:41 10° NW visible
01 Apr 4.9 21:09:42 10° SSW 21:14:18 34° W 21:18:55 10° NNW visible
03 Apr 5.7 21:36:17 10° SW 21:40:04 21° W 21:43:53 10° NW visible
04 Apr 4.5 20:58:12 10° SSW 21:03:00 42° W 21:07:50 10° NNW visible
